STARLINK-31152, 58734

Orbit data source: Space-Track

STARLINK-31152, 58734 is a payload satellite owned by SpaceX/Seattle (US) in LEO that was launched on Sun, 07 Jan 2024 UTC via an FALCON 9 launch vehicle from the Air Force Eastern Test Range (AFETR). Payload-class satellites include a variety of spacecraft equipped with specific instruments for various scientific and technological missions. These include communications satellites like Starlink; space stations such as the ISS; scientific satellites like the Hubble; Earth observation satellites from companies like Planet Labs, Umbra, and HawkEye 360; GPS; miniature CubeSats for education and research; and military/defense satellites.

Loading next visibility...
Identifier
58734, 2024-005G
Orbit
LEO
Country
Flag of USUS
Related business
Manufacturer
SpaceX/Seattle
Mission
Operational Commercial Communications
Bus & Motor
STARLINK V2M, Unknown motor
Mass
730 kg wet, ~700 kg dry
Launch date (UTC)
2024-01-07 (2 years ago)
Launch vehicle
FALCON 9
Launch site
Air Force Eastern Test Range (AFETR)
Object type
Payload
Rocket body
Debris
Shape & HBR
Box + 2 Pan, 17.7 m
Radar Cross Section
33.884 m², Large (>1 m²)

Expand to show TLE details & history
Last TLE update: 3 days ago

TLE from 3 days ago
0 STARLINK-31152
1 58734U 24005G   26170.60421074  .00002060  00000-0  84334-4 0  9992
2 58734  43.0054   3.8976 0001835 269.9449  90.1193 15.27601617136030
Epoch: 2026-06-19T14:30Z
TLE epoch observation values (Epoch: 2026-06-19T14:30:03.807Z)
Latitude
-0°
Longitude
-121.44907°
Altitude
482.763 km
Speed
7.626 km/s
True Right ascension
00h 15m 35s
True Declination
0° 00' 00"
Sunlit
Object was in daylight at epoch
Visualization orbit readout
Latitude
Unknown
Longitude
Unknown
Altitude
Unknown
Speed
Unknown
Apparent Right ascension
Unknown
Apparent Declination
Unknown
Sunlit
N/A
Visualization observer readout
Local Sidereal Time
21:25:01
Azimuth
Unknown
Elevation
Unknown
Doppler factor
Unknown
Orbital elements
Apogee altitude
486.188 km
Perigee altitude
483.669 km
Semi-major axis
6,863.066 km
Eccentricity
0.00018
Inclination
43.0054°
RAAN
3.8976°
Arg. of periapsis
269.9449°
True anomaly
90.14033°
Mean anomaly
90.1193°
Eccentric anomaly
90.12981°
Mean motion
3.81738 °/min
Orbital period
94.31 mins
BSTAR
0.000084334
Loading maneuver chart data...
Computing Atmospheric mass density...
Loading historical data...
Loading historical data...
Loading historical data...
Loading historical data...
Loading historical data...
Loading historical data...
Loading historical data...

Documentation

Showing up to 5 results
|